DAL1600 KATL-KTPA

Flight info

Callsign DAL1600
Flight time 1h 9m
Altitude 40000
Route BANNG3 LUCKK HONID MAATY5
Aircraft A333/H-SDE3GHIJ2J3J5M1RVWXY/LB2D1

Departure

Time 2026-05-08 00:50
Airport Hartsfield Jackson Atlanta International Airport (KATL)

Arrival

Time 2026-05-08 01:59
Airport Tampa International Airport (KTPA)
Time Latitude Longitude Altitude Speed Heading
2026-05-08 00:33 33.63799 -84.42056 1010 ft 0 kts 89°
2026-05-08 00:39 33.63799 -84.42072 1010 ft 4 kts 92°
2026-05-08 00:39 33.63802 -84.42104 1010 ft 4 kts 106°
2026-05-08 00:39 33.63813 -84.42132 1010 ft 4 kts 133°
2026-05-08 00:40 33.63831 -84.42146 1010 ft 1 kts 180°
2026-05-08 00:40 33.63832 -84.42146 1010 ft 5 kts 180°
2026-05-08 00:44 33.63827 -84.42146 1010 ft 3 kts 180°
2026-05-08 00:44 33.63791 -84.42146 1010 ft 7 kts 180°
2026-05-08 00:45 33.63737 -84.42146 1010 ft 8 kts 180°
2026-05-08 00:45 33.63679 -84.42145 1010 ft 6 kts 171°
2026-05-08 00:45 33.63661 -84.42118 1011 ft 8 kts 112°
2026-05-08 00:45 33.63655 -84.42021 1010 ft 13 kts 92°
2026-05-08 00:46 33.63656 -84.41907 1010 ft 15 kts 88°
2026-05-08 00:46 33.63658 -84.41771 1010 ft 17 kts 90°
2026-05-08 00:46 33.63657 -84.41598 1010 ft 24 kts 90°
2026-05-08 00:46 33.63656 -84.41391 1009 ft 25 kts 90°
2026-05-08 00:47 33.63656 -84.41183 1010 ft 23 kts 90°
2026-05-08 00:47 33.63656 -84.41018 1010 ft 16 kts 90°
2026-05-08 00:47 33.63656 -84.40876 1010 ft 16 kts 90°
2026-05-08 00:47 33.63646 -84.40768 1010 ft 11 kts 122°
2026-05-08 00:48 33.63592 -84.40744 1011 ft 8 kts 175°
2026-05-08 00:48 33.63567 -84.40744 1011 ft 0 kts 181°
2026-05-08 00:48 33.63565 -84.40744 1011 ft 3 kts 181°
2026-05-08 00:49 33.63503 -84.40745 1011 ft 12 kts 181°
2026-05-08 00:49 33.63480 -84.40753 1011 ft 3 kts 222°
2026-05-08 00:49 33.63471 -84.40814 1011 ft 10 kts 268°
2026-05-08 00:49 33.63472 -84.41084 1009 ft 69 kts 270°
2026-05-08 00:50 33.63473 -84.41993 1026 ft 145 kts 272°
2026-05-08 00:50 33.63467 -84.43349 1497 ft 180 kts 272°
2026-05-08 00:50 33.63471 -84.44992 1996 ft 216 kts 273°
2026-05-08 00:50 33.63517 -84.46964 2580 ft 250 kts 273°
2026-05-08 00:51 33.63548 -84.49040 3203 ft 248 kts 272°
2026-05-08 00:51 33.63548 -84.51118 3825 ft 249 kts 270°
2026-05-08 00:51 33.63525 -84.53213 4467 ft 262 kts 270°
2026-05-08 00:51 33.63507 -84.55462 5152 ft 276 kts 270°
2026-05-08 00:52 33.63495 -84.57815 5867 ft 289 kts 270°
2026-05-08 00:52 33.63491 -84.60270 6591 ft 299 kts 270°
2026-05-08 00:52 33.63504 -84.62803 7348 ft 306 kts 272°
2026-05-08 00:52 33.63504 -84.65348 8442 ft 299 kts 263°
2026-05-08 00:53 33.62788 -84.67619 9949 ft 290 kts 240°
2026-05-08 00:53 33.61342 -84.69272 11359 ft 290 kts 219°
2026-05-08 00:53 33.59416 -84.70042 12740 ft 299 kts 200°
2026-05-08 00:53 33.57300 -84.70126 13787 ft 313 kts 189°
2026-05-08 00:54 33.55092 -84.69699 14532 ft 327 kts 181°
2026-05-08 00:54 33.52860 -84.69130 15367 ft 328 kts 181°
2026-05-08 00:54 33.50622 -84.68591 16209 ft 327 kts 183°
2026-05-08 00:54 33.48381 -84.68097 17046 ft 327 kts 184°
2026-05-08 00:55 33.46128 -84.67633 17884 ft 328 kts 184°
2026-05-08 00:55 33.43872 -84.67186 18617 ft 330 kts 184°
2026-05-08 00:55 33.41587 -84.66524 19197 ft 349 kts 175°
2026-05-08 00:55 33.39253 -84.65424 19498 ft 371 kts 169°
2026-05-08 00:56 33.36834 -84.64127 19744 ft 389 kts 167°
2026-05-08 00:56 33.34325 -84.62753 20002 ft 403 kts 167°
2026-05-08 00:56 33.31778 -84.61356 20414 ft 411 kts 167°
2026-05-08 00:56 33.29161 -84.59926 20930 ft 416 kts 167°
2026-05-08 00:57 33.26513 -84.58486 21468 ft 420 kts 167°
2026-05-08 00:57 33.23840 -84.57039 21997 ft 423 kts 167°
2026-05-08 00:57 33.21143 -84.55583 22533 ft 427 kts 167°
2026-05-08 00:57 33.18417 -84.54116 23060 ft 431 kts 167°
2026-05-08 00:58 33.15674 -84.52642 23565 ft 435 kts 167°
2026-05-08 00:58 33.12902 -84.51154 23979 ft 439 kts 167°
2026-05-08 00:58 33.10103 -84.49651 24430 ft 441 kts 167°
2026-05-08 00:58 33.07300 -84.48148 24886 ft 443 kts 167°
2026-05-08 00:59 33.04472 -84.46632 25316 ft 446 kts 167°
2026-05-08 00:59 33.01670 -84.45132 25737 ft 448 kts 167°
2026-05-08 00:59 32.98782 -84.43628 26191 ft 445 kts 170°
2026-05-08 00:59 32.95903 -84.42556 26585 ft 434 kts 180°
2026-05-08 01:00 32.92963 -84.42092 26968 ft 421 kts 189°
2026-05-08 01:00 32.90033 -84.41977 27370 ft 420 kts 191°
2026-05-08 01:00 32.87107 -84.41931 27772 ft 422 kts 192°
2026-05-08 01:00 32.84166 -84.41889 28170 ft 424 kts 192°
2026-05-08 01:01 32.81207 -84.41841 28542 ft 427 kts 192°
2026-05-08 01:01 32.78219 -84.41789 28911 ft 430 kts 192°
2026-05-08 01:01 32.75210 -84.41733 29263 ft 433 kts 191°
2026-05-08 01:01 32.72193 -84.41674 29612 ft 436 kts 191°
2026-05-08 01:02 32.69146 -84.41614 29983 ft 438 kts 192°
2026-05-08 01:02 32.67127 -84.41573 30199 ft 439 kts 192°
2026-05-08 01:02 32.64073 -84.41511 30532 ft 440 kts 191°
2026-05-08 01:02 32.61003 -84.41449 30869 ft 442 kts 191°
2026-05-08 01:03 32.57887 -84.41386 31213 ft 443 kts 192°
2026-05-08 01:03 32.54842 -84.41325 31523 ft 444 kts 191°
2026-05-08 01:03 32.51743 -84.41262 31853 ft 446 kts 191°
2026-05-08 01:03 32.48654 -84.41199 32217 ft 445 kts 191°
2026-05-08 01:04 32.45555 -84.41134 32616 ft 444 kts 191°
2026-05-08 01:04 32.42477 -84.41071 33066 ft 441 kts 191°
2026-05-08 01:04 32.39420 -84.41007 33538 ft 438 kts 191°
2026-05-08 01:04 32.36381 -84.40944 33995 ft 436 kts 191°
2026-05-08 01:05 32.33352 -84.40884 34359 ft 434 kts 192°
2026-05-08 01:05 32.30329 -84.40825 34660 ft 434 kts 192°
2026-05-08 01:05 32.27311 -84.40767 34940 ft 434 kts 192°
2026-05-08 01:05 32.24292 -84.40707 35241 ft 434 kts 192°
2026-05-08 01:06 32.21276 -84.40648 35485 ft 434 kts 192°
2026-05-08 01:06 32.18251 -84.40589 35717 ft 435 kts 192°
2026-05-08 01:06 32.15218 -84.40506 36007 ft 439 kts 189°
2026-05-08 01:06 32.12144 -84.40105 36301 ft 449 kts 184°
2026-05-08 01:07 32.09066 -84.39482 36588 ft 450 kts 183°
2026-05-08 01:07 32.05996 -84.38814 36861 ft 451 kts 182°
2026-05-08 01:07 32.02901 -84.38125 37145 ft 451 kts 182°
2026-05-08 01:07 31.99815 -84.37432 37442 ft 450 kts 182°
2026-05-08 01:08 31.96735 -84.36740 37714 ft 450 kts 182°
2026-05-08 01:08 31.93664 -84.36049 37933 ft 450 kts 182°
2026-05-08 01:08 31.90584 -84.35358 38149 ft 451 kts 182°
2026-05-08 01:08 31.87495 -84.34664 38397 ft 451 kts 182°
2026-05-08 01:09 31.84419 -84.33973 38650 ft 450 kts 182°
2026-05-08 01:09 31.81377 -84.33289 38866 ft 450 kts 182°
2026-05-08 01:09 31.78298 -84.32599 38960 ft 451 kts 182°
2026-05-08 01:10 31.72133 -84.31216 38977 ft 450 kts 182°
2026-05-08 01:10 31.65958 -84.29837 38958 ft 454 kts 181°
2026-05-08 01:11 31.59679 -84.28442 38992 ft 464 kts 181°
2026-05-08 01:11 31.53264 -84.27013 38995 ft 474 kts 181°
2026-05-08 01:12 31.46713 -84.25553 38989 ft 483 kts 180°
2026-05-08 01:12 31.40093 -84.24078 38994 ft 490 kts 180°
2026-05-08 01:13 31.33380 -84.22580 38988 ft 491 kts 180°
2026-05-08 01:13 31.26649 -84.21083 38990 ft 492 kts 180°
2026-05-08 01:14 31.19926 -84.19592 38988 ft 492 kts 180°
2026-05-08 01:14 31.13192 -84.18101 38990 ft 492 kts 180°
2026-05-08 01:15 31.06508 -84.16607 38980 ft 491 kts 179°
2026-05-08 01:15 30.99773 -84.15127 38983 ft 493 kts 179°
2026-05-08 01:16 30.93024 -84.13648 38986 ft 493 kts 179°
2026-05-08 01:16 30.86276 -84.12166 38985 ft 493 kts 179°
2026-05-08 01:17 30.79535 -84.10686 38974 ft 493 kts 179°
2026-05-08 01:17 30.72788 -84.09206 38980 ft 493 kts 179°
2026-05-08 01:18 30.66045 -84.07729 38982 ft 493 kts 179°
2026-05-08 01:18 30.59348 -84.06264 38978 ft 493 kts 179°
2026-05-08 01:19 30.52604 -84.04791 38975 ft 493 kts 179°
2026-05-08 01:19 30.45863 -84.03320 38981 ft 493 kts 179°
2026-05-08 01:20 30.39125 -84.01852 38980 ft 493 kts 179°
2026-05-08 01:20 30.32377 -84.00384 38984 ft 493 kts 179°
2026-05-08 01:21 30.25635 -83.98919 38960 ft 493 kts 179°
2026-05-08 01:21 30.18952 -83.97468 38985 ft 491 kts 179°
2026-05-08 01:22 30.12229 -83.96012 38997 ft 491 kts 179°
2026-05-08 01:22 30.05510 -83.94559 38998 ft 491 kts 179°
2026-05-08 01:23 29.98787 -83.93106 39002 ft 491 kts 179°
2026-05-08 01:23 29.92060 -83.91655 39005 ft 490 kts 178°
2026-05-08 01:24 29.85345 -83.90192 39006 ft 493 kts 176°
2026-05-08 01:24 29.82051 -83.89112 39007 ft 505 kts 167°
2026-05-08 01:24 29.78824 -83.87393 39007 ft 515 kts 160°
2026-05-08 01:25 29.72540 -83.83353 39005 ft 518 kts 158°
2026-05-08 01:25 29.66262 -83.79273 38999 ft 518 kts 158°
2026-05-08 01:26 29.59965 -83.75210 39013 ft 519 kts 158°
2026-05-08 01:26 29.53669 -83.71161 39012 ft 519 kts 158°
2026-05-08 01:27 29.47368 -83.67116 39012 ft 519 kts 158°
2026-05-08 01:27 29.41177 -83.62965 39005 ft 519 kts 158°
2026-05-08 01:28 29.34875 -83.58913 39016 ft 518 kts 159°
2026-05-08 01:28 29.28558 -83.54995 38735 ft 513 kts 159°
2026-05-08 01:28 29.25424 -83.53032 37989 ft 514 kts 158°
2026-05-08 01:29 29.22283 -83.51052 37179 ft 517 kts 158°
2026-05-08 01:29 29.19130 -83.49057 36451 ft 518 kts 158°
2026-05-08 01:29 29.16006 -83.47072 36126 ft 509 kts 158°
2026-05-08 01:29 29.12918 -83.45109 35561 ft 507 kts 158°
2026-05-08 01:30 29.09839 -83.43144 34892 ft 507 kts 156°
2026-05-08 01:30 29.06772 -83.41152 34137 ft 509 kts 156°
2026-05-08 01:30 29.03685 -83.39149 33253 ft 511 kts 156°
2026-05-08 01:30 29.00591 -83.37149 32431 ft 512 kts 155°
2026-05-08 01:31 28.97472 -83.35177 31635 ft 512 kts 158°
2026-05-08 01:31 28.94342 -83.33242 30911 ft 511 kts 158°
2026-05-08 01:31 28.91225 -83.31303 30285 ft 508 kts 158°
2026-05-08 01:31 28.88135 -83.29368 29651 ft 504 kts 158°
2026-05-08 01:32 28.85082 -83.27447 29019 ft 499 kts 158°
2026-05-08 01:32 28.82055 -83.25539 28378 ft 494 kts 157°
2026-05-08 01:32 28.79062 -83.23651 27787 ft 489 kts 157°
2026-05-08 01:32 28.76102 -83.21783 27202 ft 483 kts 157°
2026-05-08 01:33 28.73166 -83.19932 26567 ft 480 kts 157°
2026-05-08 01:33 28.70258 -83.18099 25978 ft 476 kts 157°
2026-05-08 01:33 28.67374 -83.16282 25400 ft 471 kts 157°
2026-05-08 01:33 28.64515 -83.14480 24806 ft 468 kts 157°
2026-05-08 01:34 28.61717 -83.12719 24248 ft 464 kts 157°
2026-05-08 01:34 28.58899 -83.10947 23675 ft 460 kts 156°
2026-05-08 01:34 28.56109 -83.09194 23031 ft 456 kts 156°
2026-05-08 01:34 28.53346 -83.07458 22387 ft 452 kts 156°
2026-05-08 01:35 28.50603 -83.05736 21769 ft 448 kts 156°
2026-05-08 01:35 28.47881 -83.04029 21124 ft 444 kts 156°
2026-05-08 01:35 28.45188 -83.02343 20518 ft 440 kts 156°
2026-05-08 01:35 28.42517 -83.00669 19920 ft 436 kts 156°
2026-05-08 01:36 28.39868 -82.99010 19323 ft 433 kts 156°
2026-05-08 01:36 28.37247 -82.97369 18845 ft 427 kts 156°
2026-05-08 01:36 28.34696 -82.95768 18766 ft 409 kts 156°
2026-05-08 01:36 28.32248 -82.94233 18595 ft 396 kts 156°
2026-05-08 01:37 28.29871 -82.92732 18405 ft 386 kts 154°
2026-05-08 01:37 28.27852 -82.90749 18214 ft 385 kts 130°
2026-05-08 01:37 28.26663 -82.88069 18001 ft 381 kts 105°
2026-05-08 01:37 28.26455 -82.85114 17636 ft 375 kts 83°
2026-05-08 01:38 28.26834 -82.82196 17236 ft 372 kts 79°
2026-05-08 01:38 28.27198 -82.79311 16909 ft 367 kts 82°
2026-05-08 01:38 28.27458 -82.76441 16474 ft 366 kts 84°
2026-05-08 01:38 28.27639 -82.73567 16102 ft 363 kts 86°
2026-05-08 01:39 28.27771 -82.70718 15709 ft 360 kts 87°
2026-05-08 01:39 28.27875 -82.67896 15381 ft 356 kts 88°
2026-05-08 01:39 28.27961 -82.65151 15351 ft 341 kts 88°
2026-05-08 01:39 28.28036 -82.62527 15322 ft 327 kts 88°
2026-05-08 01:40 28.28057 -82.59912 15132 ft 352 kts 90°
2026-05-08 01:40 28.28215 -82.57015 14941 ft 379 kts 77°
2026-05-08 01:40 28.29173 -82.54214 14766 ft 383 kts 57°
2026-05-08 01:40 28.30884 -82.51944 14563 ft 378 kts 36°
2026-05-08 01:41 28.33126 -82.50481 14391 ft 369 kts 15°
2026-05-08 01:41 28.34603 -82.50066 14282 ft 363 kts
2026-05-08 01:46 28.36093 -82.50014 14177 ft 357 kts 351°
2026-05-08 01:46 28.38447 -82.50719 13985 ft 347 kts 330°
2026-05-08 01:46 28.40365 -82.52304 13815 ft 339 kts 309°
2026-05-08 01:46 28.41599 -82.54536 13590 ft 333 kts 288°
2026-05-08 01:47 28.41990 -82.57093 13401 ft 329 kts 268°
2026-05-08 01:47 28.41503 -82.59582 13201 ft 329 kts 246°
2026-05-08 01:47 28.40198 -82.61704 13000 ft 332 kts 225°
2026-05-08 01:48 28.35940 -82.63657 12414 ft 345 kts 184°
2026-05-08 01:48 28.33567 -82.63239 11660 ft 348 kts 163°
2026-05-08 01:48 28.31468 -82.61896 10751 ft 349 kts 141°
2026-05-08 01:48 28.29929 -82.59777 9844 ft 350 kts 119°
2026-05-08 01:49 28.29152 -82.57197 8869 ft 344 kts 100°
2026-05-08 01:49 28.28965 -82.54527 7913 ft 337 kts 86°
2026-05-08 01:49 28.29410 -82.51947 7007 ft 329 kts 76°
2026-05-08 01:49 28.29705 -82.49396 6107 ft 323 kts 89°
2026-05-08 01:50 28.29659 -82.46894 5441 ft 310 kts 92°
2026-05-08 01:50 28.29840 -82.44553 5088 ft 288 kts 72°
2026-05-08 01:50 28.30822 -82.42651 5010 ft 278 kts 44°
2026-05-08 01:50 28.31834 -82.41775 5009 ft 277 kts 26°
2026-05-08 01:51 28.33667 -82.41213 5008 ft 273 kts 359°
2026-05-08 01:51 28.35498 -82.41650 5010 ft 270 kts 332°
2026-05-08 01:51 28.36929 -82.42975 5008 ft 267 kts 305°
2026-05-08 01:51 28.37652 -82.44887 5009 ft 266 kts 278°
2026-05-08 01:52 28.37507 -82.46967 5010 ft 267 kts 251°
2026-05-08 01:52 28.36518 -82.48745 5014 ft 271 kts 225°
2026-05-08 01:52 28.34919 -82.49867 5023 ft 272 kts 206°
2026-05-08 01:52 28.34097 -82.50281 5077 ft 273 kts 205°
2026-05-08 01:53 28.34071 -82.50294 5081 ft 273 kts 205°
2026-05-08 01:53 28.32316 -82.51125 5192 ft 273 kts 203°
2026-05-08 01:53 28.30539 -82.51888 5246 ft 274 kts 200°
2026-05-08 01:54 28.28719 -82.52448 5060 ft 267 kts 194°
2026-05-08 01:54 28.26920 -82.52826 4862 ft 260 kts 189°
2026-05-08 01:54 28.25149 -82.53023 4707 ft 252 kts 185°
2026-05-08 01:54 28.23430 -82.53122 4582 ft 242 kts 184°
2026-05-08 01:55 28.21779 -82.53203 4435 ft 232 kts 184°
2026-05-08 01:55 28.20180 -82.53271 4118 ft 229 kts 184°
2026-05-08 01:55 28.18597 -82.53311 3781 ft 227 kts 183°
2026-05-08 01:55 28.17020 -82.53333 3456 ft 225 kts 183°
2026-05-08 01:56 28.15482 -82.53409 3221 ft 219 kts 185°
2026-05-08 01:56 28.13973 -82.53490 2964 ft 215 kts 185°
2026-05-08 01:56 28.12506 -82.53592 2755 ft 207 kts 186°
2026-05-08 01:56 28.11097 -82.53716 2532 ft 200 kts 185°
2026-05-08 01:57 28.09710 -82.53750 2245 ft 198 kts 183°
2026-05-08 01:57 28.08341 -82.53764 1931 ft 196 kts 184°
2026-05-08 01:57 28.07004 -82.53800 1627 ft 186 kts 186°
2026-05-08 01:57 28.05768 -82.53874 1359 ft 170 kts 186°
2026-05-08 01:58 28.04637 -82.53953 1054 ft 160 kts 186°
2026-05-08 01:58 28.03555 -82.53990 807 ft 152 kts 182°
2026-05-08 01:58 28.02508 -82.54005 626 ft 146 kts 184°
2026-05-08 01:58 28.01501 -82.54048 468 ft 144 kts 186°
2026-05-08 01:59 28.00520 -82.54089 280 ft 138 kts 182°
2026-05-08 01:59 27.99575 -82.54123 119 ft 136 kts 184°
2026-05-08 01:59 27.98645 -82.54160 49 ft 126 kts 182°
2026-05-08 01:59 27.98017 -82.54180 48 ft 48 kts 182°
2026-05-08 02:00 27.97831 -82.54180 48 ft 23 kts 173°
2026-05-08 02:00 27.97704 -82.54124 49 ft 11 kts 152°
2026-05-08 02:00 27.97634 -82.54081 46 ft 12 kts 152°
2026-05-08 02:00 27.97588 -82.54006 51 ft 13 kts 94°
2026-05-08 02:01 27.97588 -82.53983 50 ft 0 kts 90°
2026-05-08 02:01 27.97588 -82.53980 50 ft 0 kts 90°
2026-05-08 02:01 27.97588 -82.53976 50 ft 2 kts 90°
2026-05-08 02:01 27.97588 -82.53944 43 ft 6 kts 90°
2026-05-08 02:02 27.97586 -82.53875 48 ft 10 kts 101°
2026-05-08 02:02 27.97564 -82.53826 47 ft 7 kts 124°
2026-05-08 02:02 27.97543 -82.53790 48 ft 1 kts 124°
2026-05-08 02:02 27.97542 -82.53789 48 ft 0 kts 124°
2026-05-08 02:03 27.97542 -82.53774 48 ft 5 kts 86°
2026-05-08 02:03 27.97574 -82.53732 45 ft 7 kts 40°
2026-05-08 02:03 27.97582 -82.53725 47 ft 0 kts 35°